User: anonymous   Login
Location: Unspecified
(0.0000°N, 0.0000°E)
Time: 22:23:55
(UTC+00:00)
Language:

ADEOS II - Orbit

View from above orbital plane
View from above orbital plane
View from above satellite
View from above satellite

Ground track
Ground track

The orbit data is extracted from the following two-line orbital elements,

1 27597U 02056A   18167.85958351 +.00000009 +00000-0 +20692-4 0  9992
2 27597 098.4210 127.9875 0001379 040.0779 320.0503 14.27353247807446
Epoch (UTC): 16 June 2018 20:37:48
Eccentricity: 0.0001379
inclination: 98.4210°
perigee height: 799 km
apogee height: 801 km
right ascension of ascending node: 127.9875°
argument of perigee: 40.0779°
revolutions per day: 14.27353247
mean anomaly at epoch: 320.0503°
orbit number at epoch: 80744

The dashed part of the orbit path shows where the satellite is in the earth's shadow,  

DLR